Wind_Speed
10 10 10 10 10 11 10 9 8 5 5 6 6 6 6 7 7 7 8 10 11 12 13 14 15 16 17 18 18 18 18 18 16 16 17 17 18 17 18 19 18 20 21 22 23
10 9 10 11 10 11 12 11 9 8 7 5 5 7 11 12 13 13 13 13 13 13 13 13 14 14 14 13 13 14 14 13 13 14 15 16 17 14 15 17 19 19 21 23 23
10 10 11 12 13 14 14 14 12 10 9 7 6 6 4 3 4 6 6 7 8 9 10 10 9 9 10 13 13 12 11 12 12 13 14 14 16 18 19 21 21 21 22 23 24
10 12 15 14 14 14 13 13 13 11 9 9 8 7 7 7 7 9 9 9 9 9 9 8 9 10 11 10 9 9 11 11 13 14 16 16 17 20 22 22 22 23 24 26 28
11 14 13 13 13 13 14 13 12 11 9 9 9 8 8 9 11 10 11 10 9 8 8 10 11 11 10 10 11 12 13 14 16 16 15 18 21 23 23 24 26 29 32 33 33
15 16 15 15 15 16 16 15 13 12 10 9 9 9 9 8 10 10 10 8 8 9 10 11 11 12 12 11 11 11 11 13 15 17 20 22 25 28 31 32 33 33 35 37 40
18 16 14 14 15 17 17 15 13 12 11 9 10 10 10 10 10 9 8 7 8 10 10 11 11 10 11 10 10 10 12 14 17 18 22 28 30 34 36 38 41 43 42 44 45
16 14 13 13 14 18 19 16 13 10 10 10 9 9 8 8 8 7 7 9 12 13 14 14 14 14 13 14 15 16 19 20 20 23 28 33 39 42 47 48 52 56 60 58 57
14 12 12 12 14 19 21 17 14 11 10 10 9 8 8 7 7 7 8 8 8 9 10 13 13 13 15 16 16 20 23 26 31 33 38 40 45 48 53 57 60 61 61 64 68
11 11 10 11 13 18 23 21 16 11 10 11 9 8 7 7 7 7 9 9 9 12 13 13 13 13 13 15 18 22 27 34 39 40 44 45 48 52 56 58 61 64 69 72 71
10 9 6 9 12 17 22 21 16 13 12 11 9 9 8 8 9 9 10 11 13 14 15 16 17 18 21 25 27 29 33 35 40 44 50 50 54 57 60 63 65 67 67 69 70
9 6 4 7 11 17 21 22 17 14 11 10 7 6 6 7 7 9 10 12 13 14 16 18 18 18 20 22 28 33 37 40 44 47 51 53 56 59 60 63 66 67 69 72 76
13 5 2 4 9 15 20 24 19 14 9 7 6 3 5 5 7 9 11 14 14 16 17 18 19 22 27 31 34 36 40 43 49 53 58 57 59 63 66 69 71 74 76 77 79
12 10 4 2 7 14 19 24 23 17 10 6 7 5 5 6 8 10 11 12 15 17 19 21 25 30 35 37 40 41 45 49 54 60 62 62 66 69 72 71 75 75 78 80 85
13 11 5 1 5 12 17 21 25 23 12 9 9 8 5 5 6 9 11 13 15 19 22 26 30 32 37 39 40 46 49 52 54 60 65 66 69 75 72 77 74 79 81 86 87
17 13 8 3 5 11 16 21 23 23 13 10 10 9 7 6 7 8 10 15 19 23 25 28 32 35 37 42 46 50 53 58 59 60 63 66 70 73 76 77 81 84 87 87 87
19 15 11 7 6 10 14 18 20 23 20 13 9 9 8 8 10 14 18 21 23 25 26 31 36 39 40 45 50 55 58 57 59 61 64 65 71 72 79 82 84 87 87 82 80
21 20 15 11 11 13 14 16 19 22 23 17 12 11 9 9 10 12 16 20 23 26 30 35 39 42 44 48 53 61 60 60 64 66 67 66 68 76 81 81 83 81 75 74 66
20 22 19 15 13 16 13 16 17 22 23 19 15 11 11 11 12 15 18 20 25 29 32 37 39 42 46 50 55 59 60 61 62 67 71 74 78 78 81 81 81 84 74 59 52
17 19 21 20 17 11 12 16 19 22 25 21 15 13 12 12 13 15 19 23 28 31 35 39 41 45 48 52 55 59 61 61 63 69 72 74 82 83 84 85 83 64 55 46 39
17 17 16 14 11 10 13 17 21 23 25 23 17 13 13 15 15 17 22 27 31 35 38 39 42 47 54 60 61 61 61 62 65 70 76 83 84 79 83 74 62 49 41 40 39
19 19 16 14 11 10 12 17 20 23 24 23 18 17 17 16 17 19 23 28 33 35 37 42 46 53 59 63 62 64 65 63 66 72 77 82 84 76 77 58 43 39 41 42 43
22 20 19 15 12 11 13 17 21 24 26 24 21 20 18 19 19 21 25 30 33 36 41 45 48 53 58 62 62 65 63 65 68 76 81 83 82 76 63 40 35 41 41 44 48
23 21 20 18 16 16 17 20 24 25 27 26 25 22 22 23 24 26 28 31 34 37 41 47 52 56 59 61 63 66 64 65 70 78 82 78 78 70 49 38 40 39 47 52 54
25 22 22 21 21 20 19 20 24 27 28 28 27 24 24 26 27 29 31 32 35 37 42 48 53 57 59 60 63 65 65 67 73 80 82 81 71 57 39 40 45 47 49 50 51
25 23 23 22 22 22 22 21 25 26 28 30 30 27 27 28 29 31 31 33 36 39 44 50 56 59 60 62 65 65 67 70 75 79 80 80 66 45 33 36 45 48 52 54 53
27 23 23 23 22 23 22 22 26 27 28 31 30 29 30 32 32 32 33 35 39 43 47 54 59 62 61 63 63 65 68 71 74 81 82 74 59 37 32 34 45 51 54 57 58
Wind_Direction
101 88 83 72 64 55 50 43 35 16 321 295 281 273 268 266 269 277 283 290 296 299 302 306 308 307 307 307 306 311 312 314 314 310 310 307 308 308 304 304 303 304 304 302 303
98 87 77 68 57 49 47 44 41 33 21 6 333 294 278 274 276 279 284 289 295 305 309 311 313 313 311 318 329 332 328 321 316 309 304 303 302 298 295 295 298 300 300 302 302
98 88 76 67 60 54 46 41 40 38 33 30 27 23 13 346 322 310 318 328 331 334 338 338 342 350 353 359 353 343 332 330 319 312 315 314 310 309 308 308 305 302 300 298 295
96 85 82 76 61 47 36 28 26 33 37 33 30 34 39 46 43 42 41 36 25 18 10 4 6 12 13 4 355 342 335 329 321 319 313 311 307 306 307 306 302 296 293 291 290
96 93 90 74 63 49 35 18 16 27 29 22 29 35 45 51 54 51 43 34 27 20 15 21 19 14 8 354 346 340 336 329 321 318 312 309 306 303 300 296 295 295 293 291 289
113 108 92 76 55 39 26 16 9 16 30 43 48 56 58 64 55 43 42 39 30 29 32 23 17 14 7 3 355 349 339 326 321 321 317 312 302 300 298 299 296 289 285 281 279
125 109 87 63 45 32 22 17 14 15 36 47 55 66 61 61 52 41 36 38 30 32 31 19 13 7 7 1 360 349 336 334 326 312 297 300 304 307 306 302 295 290 287 286 285
130 103 82 60 43 30 21 20 22 22 34 44 55 57 51 53 49 57 52 29 24 18 10 14 13 5 1 2 355 345 340 330 319 317 316 317 318 316 310 307 306 305 303 296 291
125 105 82 60 41 30 22 22 24 23 34 33 30 31 38 32 39 30 32 27 22 12 15 12 10 1 359 351 342 343 336 328 327 327 322 321 318 316 311 309 305 300 297 296 296
130 109 82 54 38 33 25 22 21 28 36 33 29 41 45 45 36 20 30 19 16 3 1 5 360 355 345 336 340 334 334 332 329 325 321 318 313 309 306 302 299 297 296 296 294
134 120 81 46 33 31 27 22 23 24 24 29 37 37 36 39 42 28 19 1 3 359 358 351 345 351 348 344 338 331 325 323 320 318 316 313 310 308 306 303 300 298 297 297 297
159 140 78 44 28 24 24 22 21 24 21 25 32 31 32 36 28 14 2 355 356 350 341 341 345 341 334 331 329 329 324 321 317 311 310 312 311 311 310 307 302 302 303 304 303
202 178 105 36 23 14 19 18 16 19 18 10 360 353 360 11 3 352 349 347 343 336 336 333 334 334 334 331 328 324 323 321 318 318 315 315 314 311 310 306 309 309 309 308 306
196 194 187 18 17 13 17 15 12 9 356 340 342 348 342 342 344 349 348 343 337 331 328 330 329 328 326 327 325 322 322 322 320 318 317 316 312 311 309 311 310 309 308 306 306
183 190 200 300 360 7 10 7 5 4 351 338 332 327 325 341 334 344 344 335 330 329 330 328 328 330 327 325 323 321 324 323 320 319 315 316 314 310 312 310 310 310 308 306 303
199 201 213 248 338 357 2 356 355 1 356 345 336 324 311 345 355 347 337 337 336 335 335 333 333 333 328 324 326 328 325 323 320 319 318 316 313 313 312 312 311 309 306 304 303
206 214 222 251 308 340 349 346 347 352 354 343 337 328 316 335 345 348 349 345 340 333 335 334 331 329 333 333 331 329 324 322 321 319 316 317 315 316 314 312 312 311 308 306 305
214 222 231 253 288 313 326 335 340 346 348 341 335 324 320 315 327 337 334 332 330 334 332 331 330 332 331 332 330 329 329 327 324 319 317 319 318 316 315 315 314 313 308 307 309
225 229 240 253 275 294 314 326 333 339 343 336 325 320 306 308 325 333 329 329 329 328 335 338 337 332 332 334 337 334 331 326 322 320 322 323 320 319 315 317 316 314 323 325 326
234 233 241 250 264 288 311 326 331 335 335 332 318 318 319 319 321 321 325 325 326 328 333 337 337 335 331 332 332 334 330 328 324 323 325 326 320 321 320 321 322 331 332 339 345
239 230 230 230 249 278 308 323 332 333 332 329 317 313 317 314 318 324 326 326 328 333 337 338 337 333 332 330 332 333 331 328 328 327 325 324 327 327 326 329 336 343 354 356 357
237 228 226 227 245 275 310 324 329 330 331 326 308 308 307 307 316 325 327 327 334 336 341 339 336 333 337 332 334 333 330 332 331 329 326 326 330 328 329 338 339 351 354 352 348
231 228 225 229 242 274 301 320 327 329 328 327 317 308 310 313 318 318 324 331 336 339 340 337 337 337 339 337 335 333 333 333 333 330 329 329 332 331 334 342 343 346 348 346 343
229 228 227 229 247 267 287 308 319 327 329 329 322 311 311 312 313 316 326 331 334 337 339 338 340 341 339 338 336 333 336 334 334 332 332 332 332 336 337 340 342 347 346 346 344
227 229 229 235 248 266 284 298 320 324 328 327 322 314 309 313 313 316 323 332 337 339 340 339 341 342 339 339 336 336 336 335 336 333 332 334 337 339 344 344 342 343 344 342 339
228 232 234 240 250 267 281 289 311 323 330 327 321 317 311 310 310 314 323 330 335 336 338 340 341 343 341 339 337 337 335 339 336 332 332 335 339 340 345 344 335 341 342 342 341
227 230 236 244 256 267 274 287 308 321 329 326 324 319 313 311 312 314 321 326 330 332 336 341 342 343 340 337 337 338 340 339 337 334 335 339 341 343 351 346 338 342 344 345 346
Height
5901 5901 5900 5899 5899 5898 5897 5895 5894 5893 5892 5891 5891 5891 5890 5890 5890 5890 5890 5890 5889 5888 5888 5887 5886 5885 5884 5882 5881 5879 5878 5876 5875 5873 5871 5869 5868 5865 5862 5859 5858 5854 5852 5849 5847
5903 5903 5902 5901 5900 5899 5898 5896 5895 5893 5892 5891 5890 5889 5888 5888 5888 5888 5888 5888 5887 5886 5885 5884 5884 5883 5882 5880 5878 5877 5876 5875 5873 5871 5869 5867 5865 5864 5861 5858 5854 5853 5850 5846 5843
5905 5904 5904 5903 5902 5900 5899 5897 5895 5894 5892 5891 5889 5888 5887 5886 5887 5886 5886 5886 5885 5884 5883 5882 5882 5881 5880 5878 5877 5875 5874 5873 5871 5869 5867 5865 5862 5860 5859 5856 5853 5850 5846 5842 5838
5905 5906 5905 5905 5903 5902 5900 5898 5896 5894 5892 5890 5889 5888 5887 5887 5888 5886 5885 5885 5884 5883 5882 5881 5881 5880 5878 5878 5876 5874 5872 5871 5869 5867 5864 5862 5859 5856 5853 5850 5847 5843 5840 5836 5832
5906 5906 5907 5906 5905 5904 5901 5899 5896 5894 5892 5891 5889 5888 5888 5888 5888 5887 5887 5886 5885 5885 5884 5882 5881 5880 5878 5878 5876 5874 5872 5870 5867 5865 5863 5860 5856 5853 5850 5847 5843 5838 5834 5830 5826
5908 5908 5909 5908 5907 5905 5903 5900 5897 5894 5893 5891 5890 5889 5889 5890 5889 5889 5888 5887 5886 5885 5884 5882 5881 5880 5879 5877 5875 5872 5870 5867 5864 5861 5858 5856 5852 5850 5847 5843 5838 5833 5828 5823 5817
5909 5909 5910 5909 5908 5906 5903 5900 5897 5895 5893 5892 5891 5891 5891 5891 5889 5888 5887 5886 5885 5884 5882 5880 5879 5877 5876 5874 5872 5870 5868 5865 5861 5859 5856 5852 5851 5847 5842 5837 5831 5825 5819 5813 5808
5910 5911 5911 5911 5909 5907 5904 5901 5898 5896 5894 5893 5892 5891 5891 5889 5888 5886 5886 5886 5885 5883 5881 5880 5878 5878 5876 5875 5872 5870 5867 5863 5861 5858 5854 5849 5844 5840 5833 5827 5820 5813 5807 5801 5793
5911 5912 5912 5911 5910 5908 5904 5901 5899 5897 5895 5894 5893 5892 5891 5889 5888 5887 5886 5884 5881 5881 5880 5879 5879 5877 5875 5873 5871 5868 5864 5859 5855 5852 5846 5844 5837 5831 5823 5817 5809 5801 5793 5785 5777
5912 5913 5913 5912 5911 5908 5905 5902 5899 5898 5896 5895 5894 5894 5890 5888 5888 5887 5886 5886 5884 5883 5880 5878 5876 5874 5872 5870 5867 5864 5861 5858 5853 5850 5843 5837 5829 5822 5814 5806 5797 5788 5779 5770 5759
5912 5913 5913 5913 5911 5909 5907 5904 5902 5899 5897 5895 5894 5892 5891 5890 5889 5888 5886 5884 5884 5883 5881 5879 5878 5876 5874 5871 5868 5865 5859 5852 5845 5839 5831 5827 5820 5813 5804 5793 5783 5772 5761 5750 5740
5912 5913 5914 5913 5911 5909 5907 5905 5902 5901 5898 5897 5895 5893 5892 5890 5889 5888 5887 5886 5885 5883 5881 5879 5877 5874 5870 5866 5862 5858 5852 5846 5841 5833 5824 5819 5809 5799 5788 5778 5764 5754 5743 5733 5721
5912 5913 5913 5913 5912 5910 5908 5905 5902 5900 5899 5897 5896 5894 5892 5892 5890 5889 5888 5886 5885 5882 5879 5876 5874 5872 5869 5865 5860 5854 5848 5841 5834 5826 5817 5807 5797 5784 5773 5760 5750 5737 5725 5712 5698
5911 5913 5913 5913 5913 5911 5908 5905 5903 5900 5899 5898 5896 5894 5892 5891 5889 5887 5886 5885 5883 5880 5878 5877 5874 5870 5865 5860 5855 5850 5843 5836 5828 5817 5805 5795 5781 5770 5757 5748 5734 5721 5708 5694 5681
5910 5911 5912 5912 5912 5911 5909 5905 5904 5901 5899 5898 5895 5892 5889 5889 5888 5886 5884 5883 5881 5878 5877 5874 5869 5865 5860 5855 5849 5843 5835 5827 5819 5810 5797 5783 5770 5754 5747 5732 5719 5706 5689 5674 5658
5909 5910 5911 5912 5911 5910 5908 5905 5904 5903 5898 5896 5894 5890 5889 5887 5886 5884 5882 5881 5878 5876 5873 5869 5865 5861 5854 5848 5842 5835 5829 5819 5810 5800 5788 5774 5758 5747 5733 5716 5702 5686 5668 5650 5633
5907 5908 5909 5910 5910 5909 5907 5906 5905 5901 5898 5896 5892 5889 5887 5885 5882 5879 5877 5876 5875 5873 5870 5866 5860 5854 5850 5842 5835 5828 5820 5811 5803 5790 5777 5763 5746 5735 5716 5699 5681 5664 5647 5631 5617
5904 5906 5907 5908 5908 5908 5907 5905 5903 5900 5896 5893 5890 5888 5886 5884 5881 5880 5877 5875 5872 5869 5865 5860 5855 5849 5843 5835 5828 5819 5809 5798 5783 5771 5762 5756 5739 5723 5701 5684 5667 5645 5627 5618 5603
5901 5903 5905 5906 5906 5906 5906 5903 5900 5897 5894 5891 5889 5886 5883 5881 5880 5877 5873 5871 5867 5864 5860 5855 5849 5842 5835 5827 5819 5808 5800 5790 5777 5762 5744 5730 5714 5705 5686 5671 5654 5632 5613 5597 5584
5898 5900 5902 5903 5903 5904 5903 5901 5898 5895 5891 5889 5886 5884 5881 5879 5877 5873 5869 5866 5864 5859 5853 5849 5843 5836 5828 5819 5812 5801 5791 5778 5765 5746 5734 5723 5701 5684 5666 5650 5631 5614 5599 5589 5578
5895 5897 5898 5899 5901 5901 5900 5898 5895 5892 5889 5887 5884 5881 5878 5875 5872 5868 5867 5864 5859 5854 5849 5843 5838 5831 5823 5813 5803 5793 5782 5769 5754 5739 5721 5700 5689 5666 5644 5626 5610 5601 5592 5582 5574
5892 5894 5895 5896 5898 5898 5896 5895 5893 5889 5887 5883 5880 5877 5874 5871 5870 5867 5863 5857 5854 5849 5844 5839 5833 5824 5815 5805 5796 5785 5770 5759 5745 5730 5712 5693 5678 5655 5639 5623 5609 5601 5591 5582 5574
5887 5889 5891 5892 5894 5894 5893 5892 5889 5887 5883 5880 5878 5875 5871 5869 5867 5862 5858 5854 5849 5844 5837 5832 5826 5815 5804 5798 5787 5776 5764 5751 5737 5716 5697 5679 5663 5646 5630 5620 5610 5598 5590 5582 5572
5883 5885 5887 5889 5889 5890 5889 5888 5886 5884 5881 5878 5875 5872 5869 5865 5861 5857 5854 5849 5843 5838 5833 5828 5820 5810 5800 5789 5779 5769 5756 5740 5725 5707 5690 5671 5651 5638 5624 5615 5609 5598 5588 5577 5566
5878 5880 5882 5884 5885 5886 5885 5885 5883 5880 5877 5874 5871 5867 5864 5862 5857 5853 5849 5845 5840 5835 5828 5822 5814 5804 5792 5781 5771 5760 5746 5730 5714 5694 5676 5663 5643 5626 5616 5607 5599 5593 5585 5576 5565
5874 5876 5877 5879 5880 5881 5881 5880 5879 5876 5873 5870 5867 5863 5861 5857 5852 5848 5844 5840 5836 5829 5822 5815 5806 5795 5786 5775 5765 5752 5738 5722 5706 5687 5672 5659 5644 5625 5617 5609 5601 5592 5581 5571 5561
5868 5870 5873 5874 5875 5876 5876 5875 5875 5871 5869 5866 5863 5859 5855 5852 5848 5844 5839 5834 5829 5822 5815 5808 5799 5789 5779 5768 5758 5748 5731 5717 5702 5680 5661 5646 5632 5623 5619 5612 5600 5587 5577 5564 5554